DW6794 Weather Reports


Display with metric or nautical units.
time (UTC)temp
F
wind
direction
speed
MPH
gust
MPH
rain 1hr
in
rain 24hr
in
rain mn
in
humidity
%
barometer
mb
20150131190356 41 234 1.0 6.0 0.00 0.00 0.00 49 1026.4
20150131185356 41 217 4.0 6.0 0.00 0.00 0.00 49 1026.5
20150131184356 41 219 3.0 6.0 0.00 0.00 0.00 51 1026.6
20150131183356 40 219 3.0 5.0 0.00 0.00 0.00 54 1026.7
20150131182357 40 219 1.0 3.0 0.00 0.00 0.00 55 1026.8
20150131181357 39 169 1.0 6.0 0.00 0.00 0.00 56 1027.0
20150131180356 39 144 4.0 6.0 0.00 0.00 0.00 56 1027.1
20150131175357 38 44 0.0 0.0 0.00 0.00 0.00 60 1027.2
20150131174356 37 44 0.0 0.0 0.00 0.00 0.00 61 1027.6
20150131173356 37 44 0.0 0.0 0.00 0.00 0.00 62 1027.7
20150131172356 37 44 0.0 0.0 0.00 0.00 0.00 62 1028.1
20150131171357 36 44 0.0 0.0 0.00 0.00 0.00 63 1028.2
20150131170357 36 44 0.0 0.0 0.00 0.00 0.00 64 1028.3
20150131165357 35 44 0.0 0.0 0.00 0.00 0.00 65 1028.4
20150131164357 36 44 0.0 0.0 0.00 0.00 0.00 66 1028.6
20150131163356 36 19 0.0 0.0 0.00 0.00 0.00 68 1028.7
20150131162357 35 329 0.0 0.0 0.00 0.00 0.00 69 1028.8
20150131161356 34 329 0.0 0.0 0.00 0.00 0.00 69 1028.8
20150131160358 34 321 0.0 0.0 0.00 0.00 0.00 70 1028.9
20150131155356 34 302 0.0 0.0 0.00 0.00 0.00 71 1029.0
20150131154357 33 302 0.0 0.0 0.00 0.00 0.00 73 1029.1
20150131153356 32 302 0.0 0.0 0.00 0.00 0.00 73 1029.1
20150131152356 31 302 0.0 0.0 0.00 0.00 0.00 74 1029.0
20150131151357 30 302 0.0 0.0 0.00 0.00 0.00 74 1028.9
20150131150356 29 302 0.0 0.0 0.00 0.00 0.00 75 1028.9
20150131145357 28 301 0.0 0.0 0.00 0.00 0.00 75 1028.9
20150131144356 27 301 0.0 0.0 0.00 0.00 0.00 75 1029.0
20150131143357 26 300 0.0 0.0 0.00 0.00 0.00 75 1029.0
20150131142357 25 299 0.0 0.0 0.00 0.00 0.00 76 1028.9
20150131141357 24 299 0.0 0.0 0.00 0.00 0.00 76 1028.9
20150131140357 24 298 0.0 0.0 0.00 0.00 0.00 76 1028.6
20150131135357 22 298 0.0 0.0 0.00 0.00 0.00 76 1028.8
20150131134357 20 298 0.0 0.0 0.00 0.00 0.00 75 1028.3
20150131133357 18 298 0.0 0.0 0.00 0.00 0.00 75 1028.3
20150131132357 17 298 0.0 0.0 0.00 0.00 0.00 74 1028.4
20150131131357 16 298 0.0 0.0 0.00 0.00 0.00 73 1028.4
20150131130357 15 298 0.0 0.0 0.00 0.00 0.00 73 1028.3
20150131125357 15 298 0.0 0.0 0.00 0.00 0.00 73 1028.2
20150131124357 15 298 0.0 0.0 0.00 0.00 0.00 72 1028.3
20150131123357 15 298 0.0 0.0 0.00 0.00 0.00 72 1028.3
20150131122357 15 298 0.0 0.0 0.00 0.00 0.00 71 1028.2
20150131121358 14 298 0.0 0.0 0.00 0.00 0.00 71 1028.1
20150131120357 15 298 0.0 0.0 0.00 0.00 0.00 71 1027.9
20150131115358 15 298 0.0 0.0 0.00 0.00 0.00 71 1027.8
20150131114358 15 298 0.0 0.0 0.00 0.00 0.00 72 1027.7
20150131113358 15 298 0.0 0.0 0.00 0.00 0.00 72 1027.7
20150131112358 15 298 0.0 0.0 0.00 0.00 0.00 71 1027.7
20150131111357 15 298 0.0 0.0 0.00 0.00 0.00 71 1027.7
20150131110358 15 298 0.0 0.0 0.00 0.00 0.00 71 1027.6
20150131105357 15 298 0.0 0.0 0.00 0.00 0.00 71 1027.5
20150131104357 15 298 0.0 0.0 0.00 0.00 0.00 71 1027.6
20150131103358 15 298 0.0 0.0 0.00 0.00 0.00 71 1027.6
20150131102357 15 298 0.0 0.0 0.00 0.00 0.00 71 1027.6
20150131101358 15 298 0.0 0.0 0.00 0.00 0.00 71 1027.6
20150131100358 15 298 0.0 0.0 0.00 0.00 0.00 70 1027.6
20150131095357 16 298 0.0 0.0 0.00 0.00 0.00 71 1027.6
20150131094358 16 298 0.0 0.0 0.00 0.00 0.00 70 1027.7
20150131093358 16 298 0.0 0.0 0.00 0.00 0.00 70 1027.7
20150131092358 16 298 0.0 0.0 0.00 0.00 0.00 70 1027.8
20150131091358 16 298 0.0 0.0 0.00 0.00 0.00 70 1027.8
20150131090358 16 298 0.0 0.0 0.00 0.00 0.00 69 1027.8
20150131085359 16 298 0.0 0.0 0.00 0.00 0.00 69 1027.7
20150131084358 17 298 0.0 0.0 0.00 0.00 0.00 69 1027.7
20150131083358 17 298 0.0 0.0 0.00 0.00 0.00 69 1027.7
20150131082358 17 298 0.0 0.0 0.00 0.00 0.00 69 1027.8
20150131081358 17 298 0.0 0.0 0.00 0.00 0.00 69 1028.0
20150131080358 17 298 0.0 0.0 0.00 0.00 0.00 69 1027.9
20150131075358 17 298 0.0 0.0 0.00 0.00 0.00 69 1027.9
20150131074358 17 298 0.0 0.0 0.00 0.00 0.00 69 1028.0
20150131073358 17 298 0.0 0.0 0.00 0.00 0.00 69 1028.1
20150131072358 18 298 0.0 0.0 0.00 0.00 0.00 69 1028.1
20150131071358 18 298 0.0 0.0 0.00 0.00 0.00 69 1028.2
20150131070358 18 298 0.0 0.0 0.00 0.00 0.00 69 1028.1
20150131065359 18 298 0.0 0.0 0.00 0.00 0.00 69 1028.0
20150131064358 18 298 0.0 0.0 0.00 0.00 0.00 68 1028.0
20150131063358 18 298 0.0 0.0 0.00 0.00 0.00 68 1027.9
20150131062359 19 298 0.0 0.0 0.00 0.00 0.00 68 1027.8
20150131061359 19 298 0.0 0.0 0.00 0.00 0.00 68 1027.9
20150131060358 19 298 0.0 0.0 0.00 0.00 0.00 68 1028.0
20150131055359 19 298 0.0 0.0 0.00 0.00 0.00 68 1027.9
20150131054359 19 298 0.0 0.0 0.00 0.00 0.00 68 1027.9
20150131053359 19 298 0.0 0.0 0.00 0.00 0.00 68 1028.0
20150131052359 19 298 0.0 0.0 0.00 0.00 0.00 68 1027.8
20150131051359 20 298 0.0 0.0 0.00 0.00 0.00 67 1027.7
20150131050359 20 298 0.0 0.0 0.00 0.00 0.00 67 1027.6
20150131045359 20 298 0.0 0.0 0.00 0.00 0.00 68 1027.6
20150131044359 21 298 0.0 0.0 0.00 0.00 0.00 68 1027.6
20150131043359 21 298 0.0 0.0 0.00 0.00 0.00 68 1027.8
20150131042359 21 298 0.0 0.0 0.00 0.00 0.00 67 1027.8
20150131041359 21 298 0.0 0.0 0.00 0.00 0.00 67 1028.0
20150131040359 21 298 0.0 0.0 0.00 0.00 0.00 67 1027.9
20150131035359 21 298 0.0 0.0 0.00 0.00 0.00 67 1027.8
20150131034359 21 298 0.0 0.0 0.00 0.00 0.00 66 1028.0
20150131033359 21 298 0.0 0.0 0.00 0.00 0.00 66 1027.9
20150131032359 21 298 0.0 0.0 0.00 0.00 0.00 67 1027.9
20150131031359 22 296 0.0 0.0 0.00 0.00 0.00 65 1027.9
20150131030400 23 296 0.0 0.0 0.00 0.00 0.00 64 1027.8
20150131025400 23 296 0.0 0.0 0.00 0.00 0.00 64 1027.7
20150131024400 23 296 0.0 0.0 0.00 0.00 0.00 64 1027.7
20150131023359 23 296 0.0 0.0 0.00 0.00 0.00 63 1027.5
20150131022359 23 296 0.0 0.0 0.00 0.00 0.00 63 1027.4
20150131021359 24 296 0.0 0.0 0.00 0.00 0.00 63 1027.4
20150131020400 24 296 0.0 0.0 0.00 0.00 0.00 63 1027.3
20150131015400 25 296 0.0 0.0 0.00 0.00 0.00 62 1027.2
20150131014359 25 296 0.0 0.0 0.00 0.00 0.00 62 1027.3
20150131013400 26 296 0.0 0.0 0.00 0.00 0.00 61 1027.3
20150131012359 26 296 0.0 0.0 0.00 0.00 0.00 61 1027.3
20150131011359 27 296 0.0 0.0 0.00 0.00 0.00 60 1027.2
20150131010400 27 296 0.0 0.0 0.00 0.00 0.00 60 1027.1
20150131005400 28 296 0.0 0.0 0.00 0.00 0.00 59 1026.8
20150131004359 29 296 0.0 0.0 0.00 0.00 0.00 58 1026.7
20150131003400 30 296 0.0 0.0 0.00 0.00 0.00 57 1026.6
20150131002400 30 296 0.0 0.0 0.00 0.00 0.00 56 1026.6
20150131001400 31 296 0.0 0.0 0.00 0.00 0.00 55 1026.5
20150131000405 32 296 0.0 0.0 0.00 0.00 0.00 54 1026.2
20150130235400 33 296 0.0 0.0 0.00 0.00 0.00 54 1026.0
20150130234400 34 296 0.0 0.0 0.00 0.00 0.00 54 1025.9
20150130233400 34 296 0.0 3.0 0.00 0.00 0.00 54 1025.6
20150130232400 35 296 1.0 5.0 0.00 0.00 0.00 54 1025.5
20150130231400 35 296 0.0 6.0 0.00 0.00 0.00 53 1025.4
20150130230400 36 296 2.0 5.0 0.00 0.00 0.00 53 1025.4
20150130225400 37 296 0.0 0.0 0.00 0.00 0.00 53 1025.2
20150130224400 38 296 0.0 3.0 0.00 0.00 0.00 52 1025.2
20150130223400 39 296 2.0 5.0 0.00 0.00 0.00 52 1025.1
20150130222400 39 295 2.0 7.0 0.00 0.00 0.00 51 1024.9
20150130221400 39 13 2.0 7.0 0.00 0.00 0.00 51 1024.9
20150130220400 40 349 3.0 12.0 0.00 0.00 0.00 51 1024.8
20150130215400 40 324 1.0 10.0 0.00 0.00 0.00 51 1024.8
20150130214401 40 281 3.0 12.0 0.00 0.00 0.00 51 1024.7
20150130213400 40 266 6.0 12.0 0.00 0.00 0.00 51 1024.6
20150130212400 40 273 4.0 12.0 0.00 0.00 0.00 52 1024.4
20150130211400 41 34 6.0 9.0 0.00 0.00 0.00 54 1024.5
20150130210401 40 315 3.0 12.0 0.00 0.00 0.00 54 1024.6
20150130205401 40 338 2.0 9.0 0.00 0.00 0.00 54 1024.6
20150130204400 39 297 3.0 10.0 0.00 0.00 0.00 54 1024.5
20150130203401 39 266 6.0 10.0 0.00 0.00 0.00 54 1024.5
20150130202400 39 9 3.0 10.0 0.00 0.00 0.00 56 1024.4
20150130201401 38 329 5.0 8.0 0.00 0.00 0.00 56 1024.6
20150130200400 39 276 5.0 13.0 0.00 0.00 0.00 56 1024.6
20150130195401 39 298 5.0 12.0 0.00 0.00 0.00 58 1024.6
20150130194401 39 272 6.0 10.0 0.00 0.00 0.00 58 1024.6
20150130193401 39 285 5.0 10.0 0.00 0.00 0.00 60 1024.7
20150130192401 38 269 4.0 15.0 0.00 0.00 0.00 59 1024.6
20150130191401 37 282 2.0 8.0 0.00 0.00 0.00 60 1024.9